FW6606 Weather Reports


time (UTC)temp
F
wind
direction
speed
knots
gust
knots
rain 1hr
in
rain 24hr
in
rain mn
in
humidity
%
barometer
mb
20260906011605 80 0 0.0 0.0 0.00 0.15 0.15 96 1012.6
20260906010058 81 0 0.0 0.0 0.00 0.15 0.15 95 1012.7
20260906004614 81 0 0.0 0.9 0.00 0.15 0.15 93 1012.7
20260906003104 81 0 0.0 0.0 0.00 0.15 0.15 95 1012.5
20260906001559 82 0 0.0 0.0 0.00 0.15 0.15 94 1012.5
20260906000111 85 0 0.0 0.9 0.00 0.15 0.15 86 1012.5
20260905234604 85 0 0.0 1.7 0.00 0.15 0.15 86 1012.4
20260905233100 85 0 0.0 1.7 0.00 0.15 0.15 86 1012.3
20260905231557 86 287 0.0 0.9 0.00 0.15 0.15 84 1012.4
20260905230110 87 0 0.0 0.0 0.00 0.15 0.15 87 1012.4
20260905224607 87 0 0.0 1.7 0.00 0.15 0.15 82 1012.2
20260905223056 88 269 0.9 3.5 0.00 0.15 0.15 81 1012.5
20260905221606 88 295 0.0 1.7 0.00 0.15 0.15 80 1012.6
20260905220116 89 0 0.0 5.2 0.00 0.15 0.15 79 1012.7
20260905214605 89 250 1.7 4.3 0.00 0.15 0.15 78 1012.8
20260905213108 90 281 0.9 3.5 0.00 0.15 0.15 78 1013.0
20260905211609 92 300 0.0 1.7 0.00 0.15 0.15 77 1013.1
20260905210104 90 0 0.0 3.5 0.00 0.15 0.15 81 1013.1
20260905204605 89 290 0.9 2.6 0.00 0.15 0.15 82 1013.0
20260905203113 88 231 0.0 2.6 0.07 0.15 0.15 84 1013.0
20260905201604 86 0 0.0 0.9 0.08 0.15 0.15 93 1013.1
20260905200059 82 0 0.0 0.0 0.12 0.15 0.15 97 1013.4
20260905194556 81 0 0.0 0.9 0.14 0.15 0.15 98 1013.7
20260905193104 81 20 0.0 1.7 0.07 0.08 0.08 94 1014.1
20260905191604 82 0 0.0 3.5 0.06 0.07 0.07 94 1014.1
20260905190108 85 270 0.9 7.0 0.02 0.03 0.03 88 1014.1
20260905184603 89 0 0.0 2.6 0.00 0.01 0.01 81 1014.1
20260905183114 90 0 0.0 1.7 0.01 0.01 0.01 82 1014.1
20260905181605 90 0 0.0 0.9 0.01 0.01 0.01 80 1014.3
20260905180109 91 0 0.0 3.5 0.01 0.01 0.01 78 1014.4
20260905174606 87 0 0.0 0.0 0.01 0.01 0.01 94 1014.6
20260905173101 91 0 0.0 0.9 0.00 0.00 0.00 78 1014.6
20260905171605 93 0 0.0 0.9 0.00 0.00 0.00 71 1014.7
20260905170101 90 0 0.0 2.6 0.00 0.00 0.00 80 1014.8
20260905164605 90 0 0.0 0.9 0.00 0.01 0.00 80 1014.9
20260905163101 90 285 0.0 1.7 0.00 0.01 0.00 77 1015.0
20260905161601 88 283 0.0 1.7 0.00 0.01 0.00 79 1015.1
20260905160119 88 0 0.0 3.5 0.00 0.01 0.00 79 1015.1
20260905154557 89 0 0.0 0.9 0.00 0.01 0.00 79 1015.1
20260905153101 89 276 1.7 4.3 0.00 0.01 0.00 79 1015.0
20260905151609 90 0 0.0 0.9 0.00 0.01 0.00 78 1015.0
20260905150057 87 0 0.0 0.9 0.00 0.01 0.00 83 1015.0
20260905144555 86 0 0.0 0.9 0.00 0.01 0.00 87 1015.0
20260905143109 86 0 0.0 1.7 0.00 0.01 0.00 86 1015.1
20260905141602 85 140 0.0 2.6 0.00 0.01 0.00 89 1015.0
20260905140107 81 0 0.0 0.9 0.00 0.01 0.00 100 1015.0
20260905134556 80 0 0.0 0.0 0.00 0.01 0.00 100 1014.8
20260905133106 78 0 0.0 0.0 0.00 0.01 0.00 100 1014.8
20260905131610 77 0 0.0 0.0 0.00 0.01 0.00 100 1014.9
20260905130101 76 0 0.0 0.0 0.00 0.01 0.00 100 1014.7
20260905124557 75 0 0.0 0.0 0.00 0.01 0.00 100 1014.7
20260905123107 74 0 0.0 0.0 0.00 0.01 0.00 100 1014.5
20260905121604 74 0 0.0 0.0 0.00 0.01 0.00 100 1014.5
20260905120113 74 0 0.0 0.0 0.00 0.01 0.00 100 1014.4
20260905114605 74 0 0.0 0.0 0.00 0.01 0.00 100 1014.4
20260905113104 74 0 0.0 0.0 0.00 0.01 0.00 100 1014.2
20260905111611 73 0 0.0 0.0 0.00 0.01 0.00 100 1014.1
20260905110059 74 0 0.0 0.0 0.00 0.01 0.00 100 1014.1
20260905104601 73 0 0.0 0.0 0.00 0.01 0.00 100 1014.0
20260905103102 73 0 0.0 0.0 0.00 0.01 0.00 100 1013.9
20260905101602 74 0 0.0 0.0 0.00 0.01 0.00 100 1013.9
20260905100059 74 0 0.0 0.0 0.00 0.01 0.00 100 1013.8
20260905094557 74 0 0.0 0.0 0.00 0.01 0.00 100 1013.9
20260905093101 74 0 0.0 0.0 0.00 0.01 0.00 100 1013.8
20260905091558 74 0 0.0 0.0 0.00 0.01 0.00 100 1013.7
20260905084606 74 0 0.0 0.0 0.00 0.01 0.00 100 1013.8
20260905083101 74 0 0.0 0.0 0.00 0.01 0.00 100 1013.7
20260905081556 74 0 0.0 0.0 0.00 0.01 0.00 100 1013.6
20260905080056 74 0 0.0 0.0 0.00 0.01 0.00 100 1013.6
20260905074558 74 0 0.0 0.0 0.00 0.01 0.00 100 1013.8
20260905073105 74 0 0.0 0.0 0.00 0.01 0.00 100 1013.6
20260905071557 74 0 0.0 0.0 0.00 0.01 0.00 100 1013.7
20260905070101 74 0 0.0 0.0 0.00 0.01 0.00 100 1013.6
20260905064552 74 0 0.0 0.0 0.00 0.01 0.00 100 1013.6
20260905063059 74 0 0.0 0.0 0.00 0.01 0.00 100 1013.3
20260905061554 75 0 0.0 0.0 0.00 0.01 0.00 100 1013.5
20260905060059 75 0 0.0 0.0 0.00 0.01 0.00 100 1013.7
20260905054602 75 0 0.0 0.0 0.00 0.03 0.00 100 1013.7
20260905053141 75 0 0.0 0.0 0.00 0.03 0.00 100 1013.8
20260905051604 75 0 0.0 0.0 0.00 0.03 0.00 100 1013.9
20260905050059 76 0 0.0 0.0 0.00 0.03 0.00 100 1014.1
20260905044602 76 0 0.0 0.0 0.00 0.16 0.03 100 1014.2
20260905043100 76 0 0.0 0.0 0.00 0.16 0.03 100 1014.3
20260905041558 76 0 0.0 0.0 0.00 0.16 0.03 100 1014.4
20260905040055 76 0 0.0 0.0 0.00 0.16 0.03 100 1014.6
20260905034601 76 0 0.0 0.0 0.00 0.16 0.03 100 1014.7
20260905033103 76 0 0.0 0.0 0.00 0.16 0.03 100 1014.8
20260905031556 76 0 0.0 0.0 0.00 0.16 0.03 100 1014.8
20260905030053 76 0 0.0 0.0 0.00 0.16 0.03 100 1014.9
20260905024623 77 0 0.0 0.0 0.00 0.16 0.03 100 1015.0
20260905023122 77 0 0.0 0.0 0.00 0.16 0.03 100 1015.2
20260905021600 77 0 0.0 0.0 0.00 0.16 0.03 100 1014.9
20260905020106 77 0 0.0 0.0 0.00 0.16 0.03 99 1014.7
20260905014558 78 0 0.0 0.0 0.00 0.16 0.03 99 1014.7
20260905013102 78 0 0.0 0.0 0.00 0.16 0.03 99 1014.5